Change the Weather History Date:

Thursday, March 7, 2013

  Actual Average Record
Temperature  
Mean Temperature 28 °F -  
Max Temperature 39 °F 32 °F 68 °F (1950)
Min Temperature 17 °F 18 °F -7 °F (2008)
Degree Days  
Heating Degree Days 37    
Moisture  
Dew Point 22 °F    
Average Humidity 79    
Maximum Humidity 93    
Minimum Humidity 60    
Precipitation  
Precipitation 0.00 in - - ()
Sea Level Pressure  
Sea Level Pressure 30.19 in    
Wind  
Wind Speed 10 mph (SE)    
Max Wind Speed 16 mph    
Max Gust Speed 23 mph    
Visibility 10 miles    
Events      
Averages and records for this station are not official NWS values.
T = Trace of Precipitation, MM = Missing Value Source: NWS Daily Summary

Daily Weather History Graph

Daily Weather History Graph

Search for Another Location

Airport or City:

Trip Planner

Search our weather history database for the weather conditions in past years. The results will help you decide how hot, cold, wet, or windy it might be!

Date:

Astronomy

Mar. 07, 2013 Rise Set
Actual Time 6:49 AM CST 6:21 PM CST
Civil Twilight 6:21 AM CST 6:49 PM CST
Nautical Twilight 5:48 AM CST 7:22 PM CST
Astronomical Twilight 5:15 AM CST 7:55 PM CST
Moon 3:55 AM CST (3/7) 2:05 PM CST (3/7)
Length of Visible Light 12h 28m
Length of Day
11h 31m
Waning Crescent, 20% of the Moon is Illuminated
Mar 7
Waning Crescent
Mar 11
New
Mar 19
First Quarter
Mar 27
Full
Apr 2
Last Quarter

Hourly Weather History & Observations

Time (CST) Temp. Windchill Dew Point Humidity Pressure Visibility Wind Dir Wind Speed Gust Speed Precip Events Conditions
12:15 AM 19.4 °F 9.5 °F 15.8 °F 86% 30.26 in 10.0 mi ESE 8.1 mph - N/A   Overcast
12:35 AM 19.4 °F 10.4 °F 17.6 °F 93% 30.24 in 10.0 mi ESE 6.9 mph - N/A   Overcast
12:55 AM 19.4 °F 7.2 °F 17.6 °F 93% 30.24 in 10.0 mi ESE 11.5 mph - N/A   Overcast
1:15 AM 19.4 °F 9.5 °F 17.6 °F 93% 30.26 in 10.0 mi ESE 8.1 mph - N/A   Overcast
1:35 AM 19.4 °F 10.4 °F 17.6 °F 93% 30.26 in 10.0 mi SE 6.9 mph - N/A   Overcast
1:55 AM 19.4 °F 10.4 °F 17.6 °F 93% 30.27 in 10.0 mi ESE 6.9 mph - N/A   Overcast
2:15 AM 19.4 °F 9.5 °F 17.6 °F 93% 30.26 in 10.0 mi ESE 8.1 mph - N/A   Overcast
2:35 AM 19.4 °F 9.5 °F 17.6 °F 93% 30.25 in 10.0 mi ESE 8.1 mph - N/A   Overcast
2:55 AM 19.4 °F 10.4 °F 15.8 °F 86% 30.24 in 10.0 mi East 6.9 mph - N/A   Scattered Clouds
3:15 AM 19.4 °F 9.5 °F 15.8 °F 86% 30.24 in 10.0 mi ESE 8.1 mph - N/A   Clear
3:35 AM 17.6 °F 8.2 °F 15.8 °F 93% 30.24 in 10.0 mi ESE 6.9 mph - N/A   Clear
3:55 AM 17.6 °F 7.3 °F 15.8 °F 93% 30.23 in 10.0 mi ESE 8.1 mph - N/A   Clear
4:15 AM 17.6 °F 6.4 °F 15.8 °F 93% 30.22 in 10.0 mi ESE 9.2 mph - N/A   Mostly Cloudy
4:35 AM 19.4 °F 8.6 °F 15.8 °F 86% 30.23 in 10.0 mi ESE 9.2 mph - N/A   Scattered Clouds
4:55 AM 19.4 °F 9.5 °F 15.8 °F 86% 30.23 in 10.0 mi ESE 8.1 mph - N/A   Scattered Clouds
5:15 AM 17.6 °F 6.4 °F 15.8 °F 93% 30.23 in 10.0 mi ESE 9.2 mph - N/A   Scattered Clouds
5:35 AM 17.6 °F 5.7 °F 15.8 °F 93% 30.23 in 10.0 mi ESE 10.4 mph 16.1 mph N/A   Clear
5:55 AM 17.6 °F 5.7 °F 15.8 °F 93% 30.23 in 10.0 mi ESE 10.4 mph 16.1 mph N/A   Clear
6:15 AM 17.6 °F 6.4 °F 15.8 °F 93% 30.24 in 10.0 mi ESE 9.2 mph - N/A   Clear
6:35 AM 17.6 °F 6.4 °F 14.0 °F 86% 30.23 in 10.0 mi ESE 9.2 mph - N/A   Clear
6:55 AM 17.6 °F 5.7 °F 14.0 °F 86% 30.24 in 10.0 mi ESE 10.4 mph - N/A   Clear
7:15 AM 17.6 °F 8.2 °F 14.0 °F 86% 30.24 in 10.0 mi SE 6.9 mph - N/A   Clear
7:35 AM 17.6 °F 6.4 °F 14.0 °F 86% 30.24 in 10.0 mi ESE 9.2 mph - N/A   Clear
7:55 AM 19.4 °F 8.6 °F 15.8 °F 86% 30.24 in 10.0 mi SE 9.2 mph - N/A   Clear
8:15 AM 19.4 °F 8.6 °F 15.8 °F 86% 30.23 in 10.0 mi SE 9.2 mph - N/A   Clear
8:35 AM 21.2 °F 10.9 °F 17.6 °F 86% 30.22 in 10.0 mi SE 9.2 mph 18.4 mph N/A   Clear
8:55 AM 23.0 °F 10.1 °F 17.6 °F 80% 30.20 in 7.0 mi SSE 15.0 mph 20.7 mph N/A   Clear
9:15 AM 24.8 °F 12.4 °F 19.4 °F 80% 30.20 in 10.0 mi SSE 15.0 mph 21.9 mph N/A   Clear
9:35 AM 26.6 °F 14.7 °F 21.2 °F 80% 30.21 in 10.0 mi SSE 15.0 mph 20.7 mph N/A   Clear
9:55 AM 26.6 °F 14.7 °F 21.2 °F 80% 30.20 in 10.0 mi SSE 15.0 mph 20.7 mph N/A   Clear
10:15 AM 26.6 °F 14.7 °F 21.2 °F 80% 30.19 in 10.0 mi SSE 15.0 mph 20.7 mph N/A   Clear
10:35 AM 28.4 °F 17.5 °F 21.2 °F 74% 30.19 in 10.0 mi SSE 13.8 mph 18.4 mph N/A   Clear
10:55 AM 30.2 °F 20.8 °F 21.2 °F 69% 30.18 in 10.0 mi SSE 11.5 mph 19.6 mph N/A   Clear
11:15 AM 30.2 °F 19.3 °F 21.2 °F 69% 30.19 in 10.0 mi SSE 15.0 mph 20.7 mph N/A   Clear
11:35 AM 32.0 °F 21.2 °F 21.2 °F 64% 30.17 in 10.0 mi SSE 16.1 mph 20.7 mph N/A   Clear
11:55 AM 33.8 °F 24.3 °F 23.0 °F 65% 30.18 in 10.0 mi SSE 13.8 mph 19.6 mph N/A   Clear
12:15 PM 35.6 °F 27.5 °F 24.8 °F 65% 30.17 in 10.0 mi SE 11.5 mph 18.4 mph N/A   Clear
12:35 PM 35.6 °F 28.0 °F 24.8 °F 65% 30.17 in 10.0 mi SE 10.4 mph 16.1 mph N/A   Clear
12:55 PM 37.4 °F 30.8 °F 24.8 °F 60% 30.16 in 10.0 mi SE 9.2 mph 17.3 mph N/A   Clear
1:15 PM 37.4 °F 29.8 °F 24.8 °F 60% 30.15 in 10.0 mi SE 11.5 mph 19.6 mph N/A   Clear
1:35 PM 37.4 °F 29.3 °F 24.8 °F 60% 30.13 in 10.0 mi SE 12.7 mph 16.1 mph N/A   Clear
1:55 PM 39.2 °F 32.0 °F 26.6 °F 61% 30.12 in 10.0 mi SE 11.5 mph 18.4 mph N/A   Clear
2:15 PM 39.2 °F 31.6 °F 26.6 °F 61% 30.12 in 10.0 mi SE 12.7 mph 20.7 mph N/A   Clear
2:35 PM 39.2 °F 30.8 °F 28.4 °F 65% 30.11 in 10.0 mi ESE 15.0 mph 20.7 mph N/A   Clear
2:55 PM 39.2 °F 30.8 °F 28.4 °F 65% 30.11 in 10.0 mi ESE 15.0 mph 23.0 mph N/A   Clear
3:15 PM 39.2 °F 31.6 °F 28.4 °F 65% 30.12 in 10.0 mi ESE 12.7 mph 19.6 mph N/A   Clear
3:35 PM 39.2 °F 31.6 °F 28.4 °F 65% 30.12 in 10.0 mi ESE 12.7 mph 19.6 mph N/A   Clear
3:55 PM 39.2 °F 31.2 °F 28.4 °F 65% 30.12 in 10.0 mi ESE 13.8 mph 19.6 mph N/A   Clear
4:15 PM 39.2 °F 31.2 °F 30.2 °F 70% 30.11 in 10.0 mi ESE 13.8 mph 19.6 mph N/A   Clear
4:35 PM 39.2 °F 31.2 °F 30.2 °F 70% 30.11 in 10.0 mi SE 13.8 mph 19.6 mph N/A   Clear
4:55 PM 37.4 °F 30.3 °F 30.2 °F 75% 30.11 in 10.0 mi ESE 10.4 mph 18.4 mph N/A   Clear
5:15 PM 37.4 °F 29.3 °F 30.2 °F 75% 30.11 in 10.0 mi SE 12.7 mph 18.4 mph N/A   Clear
5:35 PM 35.6 °F 27.5 °F 28.4 °F 75% 30.12 in 10.0 mi SE 11.5 mph 18.4 mph N/A   Clear
5:55 PM 35.6 °F 27.5 °F 28.4 °F 75% 30.13 in 10.0 mi SE 11.5 mph - N/A   Clear
7:35 PM 33.8 °F 27.0 °F 26.6 °F 75% 30.14 in 10.0 mi SE 8.1 mph 17.3 mph N/A   Clear
7:55 PM 33.8 °F 25.3 °F 26.6 °F 75% 30.14 in 10.0 mi SE 11.5 mph 16.1 mph N/A   Clear
8:15 PM 33.8 °F 26.4 °F 26.6 °F 75% 30.16 in 10.0 mi SE 9.2 mph - N/A   Clear
8:35 PM 32.0 °F 23.6 °F 26.6 °F 80% 30.16 in 10.0 mi SE 10.4 mph - N/A   Clear
8:55 PM 32.0 °F 24.2 °F 26.6 °F 80% 30.16 in 10.0 mi SE 9.2 mph 16.1 mph N/A   Clear
9:15 PM 30.2 °F 22.6 °F 24.8 °F 80% 30.16 in 7.0 mi SE 8.1 mph - N/A   Clear
9:35 PM 30.2 °F 22.6 °F 24.8 °F 80% 30.16 in 7.0 mi SE 8.1 mph - N/A   Clear
9:55 PM 30.2 °F 22.6 °F 24.8 °F 80% 30.17 in 7.0 mi SE 8.1 mph - N/A   Clear
10:15 PM 30.2 °F 22.6 °F 24.8 °F 80% 30.18 in 7.0 mi SE 8.1 mph - N/A   Clear
10:35 PM 30.2 °F 22.6 °F 24.8 °F 80% 30.18 in 7.0 mi SE 8.1 mph - N/A   Clear
10:55 PM 30.2 °F 24.3 °F 24.8 °F 80% 30.18 in 7.0 mi SE 5.8 mph - N/A   Clear
11:15 PM 30.2 °F 23.4 °F 24.8 °F 80% 30.19 in 7.0 mi SE 6.9 mph - N/A   Clear
11:35 PM 28.4 °F 22.2 °F 24.8 °F 86% 30.19 in 7.0 mi SE 5.8 mph - N/A   Clear
11:55 PM 28.4 °F 21.2 °F 24.8 °F 86% 30.19 in 7.0 mi SE 6.9 mph - N/A   Clear